Regional Weather Roundup
Issued by NWS

Home | Current Version | Previous Version | Text Only | Print | Product List | Glossary Off
Versions: 1 2 3 4 5 6 7 8 9 10 11 12 13 14 15 16 17 18 19 20 21 22 23 24 25 26 27 28 29 30 31 32 33 34 35 36 37 38 39 40 41 42 43 44 45 46 47 48 49 50

000
ASUS43 KBIS 152359
RWRND

NORTH DAKOTA REGIONAL WEATHER ROUNDUP
NATIONAL WEATHER SERVICE BISMARCK ND
700 PM CDT TUE APR 15 2014

NOTE: "FAIR" INDICATES FEW OR NO CLOUDS BELOW 12,000 FEET WITH NO
SIGNIFICANT WEATHER AND/OR OBSTRUCTIONS TO VISIBILITY.


NDZ001>003-009>011-017-160100-
NORTHWEST NORTH DAKOTA

CITY           SKY/WX    TMP DP  RH WIND       PRES   REMARKS
WILLISTON      CLOUDY    43  24  47 E26       29.62R
6HR MIN TEMP:  35; 6HR MAX TEMP:  49;

MINOT          CLOUDY    34  19  54 E20G30    29.77S
$$

NDZ018>021-031>035-040>046-160100-
SOUTHWEST NORTH DAKOTA

CITY           SKY/WX    TMP DP  RH WIND       PRES   REMARKS
BISMARCK       PTSUNNY   45  21  38 E20G31    29.70F
6HR MIN TEMP:  38; 6HR MAX TEMP:  46;

DICKINSON      CLOUDY    49  23  36 E15       29.56R
GARRISON         N/A     38  19  46 E16       29.71S
6HR MIN TEMP:  34; 6HR MAX TEMP:  42;

HETTINGER ARPT CLOUDY    56  23  27 E10       29.55R
$$

NDZ004>008-012>016-024-026-027-054-160100-
NORTHEAST NORTH DAKOTA

CITY           SKY/WX    TMP DP  RH WIND       PRES   REMARKS
GRAND FORKS    CLOUDY    31  12  45 SE10      29.96F
DEVILS LAKE    CLOUDY    30  12  47 SE16      29.91R WCI  19
$$

NDZ022-023-025-028>030-036>039-047>053-160100-
SOUTHEAST NORTH DAKOTA

CITY           SKY/WX    TMP DP  RH WIND       PRES   REMARKS
FARGO          CLOUDY    34  10  37 SE14      29.98S
6HR MIN TEMP:  28; 6HR MAX TEMP:  34;

$$




USA.gov is the U.S. government's official web portal to all federal, state and local government web resources and services.